Time,TemperatureF,DewpointF,PressureIn,WindDirection,WindDirectionDegrees,WindSpeedMPH,WindSpeedGustMPH,Humidity,HourlyPrecipIn,Conditions,Clouds,dailyrainin,SoftwareType,DateUTC
2013-02-13 00:09:00,41.3,37.0,29.97,NW,324,1.0,-999.0,85,-99.99,,,0.00,weatherlink.com 1.10,2013-02-13 05:09:00,
2013-02-13 00:24:00,41.3,37.0,29.98,NNW,343,3.0,-999.0,85,-99.99,,,0.00,weatherlink.com 1.10,2013-02-13 05:24:00,
2013-02-13 00:39:00,41.4,37.0,29.95,North,4,1.0,-999.0,83,-99.99,,,0.00,weatherlink.com 1.10,2013-02-13 05:39:00,
2013-02-13 00:54:00,41.3,37.0,29.94,SSE,165,0.0,-999.0,84,-99.99,,,0.00,weatherlink.com 1.10,2013-02-13 05:54:00,
2013-02-13 01:09:00,40.9,37.0,29.95,NNW,329,1.0,-999.0,87,-99.99,,,0.00,weatherlink.com 1.10,2013-02-13 06:09:00,
2013-02-13 01:24:00,40.7,37.0,29.94,NW,326,4.0,-999.0,86,-99.99,,,0.01,weatherlink.com 1.10,2013-02-13 06:24:00,
2013-02-13 01:39:00,40.4,37.0,29.91,WNW,293,1.0,-999.0,86,-99.99,,,0.01,weatherlink.com 1.10,2013-02-13 06:39:00,
2013-02-13 01:54:00,40.2,37.0,29.93,NW,304,5.0,-999.0,87,-99.99,,,0.01,weatherlink.com 1.10,2013-02-13 06:54:00,
2013-02-13 02:09:00,40.5,37.0,29.92,SW,217,2.0,-999.0,86,-99.99,,,0.01,weatherlink.com 1.10,2013-02-13 07:09:00,
2013-02-13 02:24:00,40.3,37.0,29.90,NW,326,4.0,-999.0,88,-99.99,,,0.01,weatherlink.com 1.10,2013-02-13 07:24:00,
2013-02-13 02:40:00,40.0,37.0,29.92,NW,319,6.0,-999.0,90,-99.99,,,0.01,weatherlink.com 1.10,2013-02-13 07:40:00,
2013-02-13 02:58:00,40.1,38.0,29.91,NW,322,3.0,-999.0,90,-99.99,,,0.01,weatherlink.com 1.10,2013-02-13 07:58:00,
2013-02-13 03:15:00,39.8,38.0,29.89,WNW,293,1.0,-999.0,92,-99.99,,,0.02,weatherlink.com 1.10,2013-02-13 08:15:00,
2013-02-13 03:24:00,39.7,38.0,29.90,SW,233,1.0,-999.0,92,-99.99,,,0.02,weatherlink.com 1.10,2013-02-13 08:24:00,
2013-02-13 03:39:00,40.0,37.0,29.90,NE,46,0.0,-999.0,90,-99.99,,,0.02,weatherlink.com 1.10,2013-02-13 08:39:00,
2013-02-13 03:54:00,40.4,37.0,29.89,NNW,335,0.0,-999.0,87,-99.99,,,0.02,weatherlink.com 1.10,2013-02-13 08:54:00,
2013-02-13 04:09:00,40.3,37.0,29.88,West,280,0.0,-999.0,87,-99.99,,,0.02,weatherlink.com 1.10,2013-02-13 09:09:00,
2013-02-13 04:24:00,40.4,37.0,29.88,WSW,245,0.0,-999.0,88,-99.99,,,0.03,weatherlink.com 1.10,2013-02-13 09:24:00,
2013-02-13 04:39:00,40.0,37.0,29.87,NE,46,0.0,-999.0,90,-99.99,,,0.04,weatherlink.com 1.10,2013-02-13 09:39:00,
2013-02-13 04:54:00,39.5,37.0,29.88,ESE,113,1.0,-999.0,91,-99.99,,,0.06,weatherlink.com 1.10,2013-02-13 09:54:00,
2013-02-13 05:09:00,39.5,37.0,29.88,SSE,165,0.0,-999.0,92,-99.99,,,0.06,weatherlink.com 1.10,2013-02-13 10:09:00,
2013-02-13 05:24:00,39.3,37.0,29.87,WSW,243,0.0,-999.0,92,-99.99,,,0.06,weatherlink.com 1.10,2013-02-13 10:24:00,
2013-02-13 05:39:00,39.2,37.0,29.85,ENE,78,0.0,-999.0,93,-99.99,,,0.06,weatherlink.com 1.10,2013-02-13 10:39:00,
2013-02-13 05:54:00,39.1,37.0,29.87,NNW,337,0.0,-999.0,93,-99.99,,,0.06,weatherlink.com 1.10,2013-02-13 10:54:00,
2013-02-13 06:09:00,39.1,38.0,29.85,North,349,0.0,-999.0,94,-99.99,,,0.06,weatherlink.com 1.10,2013-02-13 11:09:00,
2013-02-13 06:24:00,38.9,37.0,29.85,West,264,0.0,-999.0,94,-99.99,,,0.06,weatherlink.com 1.10,2013-02-13 11:24:00,
2013-02-13 06:39:00,38.9,38.0,29.84,West,264,0.0,-999.0,95,-99.99,,,0.06,weatherlink.com 1.10,2013-02-13 11:39:00,
2013-02-13 06:54:00,38.8,38.0,29.83,SSW,201,1.0,-999.0,95,-99.99,,,0.06,weatherlink.com 1.10,2013-02-13 11:54:00,
2013-02-13 07:09:00,38.7,38.0,29.85,West,281,1.0,-999.0,96,-99.99,,,0.06,weatherlink.com 1.10,2013-02-13 12:09:00,
2013-02-13 07:24:00,38.8,38.0,29.86,SSE,151,1.0,-999.0,96,-99.99,,,0.06,weatherlink.com 1.10,2013-02-13 12:24:00,
2013-02-13 07:39:00,38.8,38.0,29.86,NW,308,1.0,-999.0,96,-99.99,,,0.06,weatherlink.com 1.10,2013-02-13 12:39:00,
2013-02-13 07:54:00,38.8,38.0,29.86,WNW,287,1.0,-999.0,96,-99.99,,,0.06,weatherlink.com 1.10,2013-02-13 12:54:00,
2013-02-13 08:09:00,38.8,38.0,29.84,NNW,335,0.0,-999.0,97,-99.99,,,0.06,weatherlink.com 1.10,2013-02-13 13:09:00,
2013-02-13 08:24:00,38.8,38.0,29.84,ENE,63,1.0,-999.0,97,-99.99,,,0.06,weatherlink.com 1.10,2013-02-13 13:24:00,
2013-02-13 08:39:00,39.0,38.0,29.84,SW,236,0.0,-999.0,97,-99.99,,,0.06,weatherlink.com 1.10,2013-02-13 13:39:00,
2013-02-13 08:54:00,39.1,38.0,29.87,South,183,1.0,-999.0,97,-99.99,,,0.06,weatherlink.com 1.10,2013-02-13 13:54:00,
2013-02-13 09:09:00,39.1,38.0,29.85,SW,217,0.0,-999.0,97,-99.99,,,0.06,weatherlink.com 1.10,2013-02-13 14:09:00,
2013-02-13 09:24:00,39.4,39.0,29.84,SE,124,0.0,-999.0,97,-99.99,,,0.07,weatherlink.com 1.10,2013-02-13 14:24:00,
2013-02-13 09:39:00,39.5,39.0,29.84,West,260,1.0,-999.0,97,-99.99,,,0.07,weatherlink.com 1.10,2013-02-13 14:39:00,
2013-02-13 09:54:00,39.6,39.0,29.82,SSW,207,1.0,-999.0,98,-99.99,,,0.07,weatherlink.com 1.10,2013-02-13 14:54:00,
2013-02-13 10:09:00,39.5,39.0,29.83,SW,214,2.0,-999.0,98,-99.99,,,0.07,weatherlink.com 1.10,2013-02-13 15:09:00,
2013-02-13 10:24:00,39.5,39.0,29.83,West,267,5.0,-999.0,98,-99.99,,,0.07,weatherlink.com 1.10,2013-02-13 15:24:00,
2013-02-13 10:39:00,39.8,39.0,29.81,ESE,116,1.0,-999.0,98,-99.99,,,0.07,weatherlink.com 1.10,2013-02-13 15:39:00,
2013-02-13 10:54:00,40.0,40.0,29.82,SSE,158,0.0,-999.0,98,-99.99,,,0.07,weatherlink.com 1.10,2013-02-13 15:54:00,
2013-02-13 11:09:00,40.0,40.0,29.82,South,179,3.0,-999.0,98,-99.99,,,0.07,weatherlink.com 1.10,2013-02-13 16:09:00,
2013-02-13 11:24:00,39.9,39.0,29.81,SSW,203,2.0,-999.0,98,-99.99,,,0.07,weatherlink.com 1.10,2013-02-13 16:24:00,
2013-02-13 11:39:00,39.8,39.0,29.82,South,180,1.0,-999.0,98,-99.99,,,0.07,weatherlink.com 1.10,2013-02-13 16:39:00,
2013-02-13 11:54:00,39.8,39.0,29.80,South,190,0.0,-999.0,98,-99.99,,,0.07,weatherlink.com 1.10,2013-02-13 16:54:00,
2013-02-13 12:09:00,39.8,39.0,29.81,SSE,159,6.0,-999.0,98,-99.99,,,0.07,weatherlink.com 1.10,2013-02-13 17:09:00,
2013-02-13 12:24:00,39.8,39.0,29.78,South,176,2.0,-999.0,98,-99.99,,,0.07,weatherlink.com 1.10,2013-02-13 17:24:00,
2013-02-13 12:39:00,40.0,40.0,29.78,South,190,4.0,-999.0,98,-99.99,,,0.07,weatherlink.com 1.10,2013-02-13 17:39:00,
2013-02-13 12:54:00,40.0,40.0,29.77,SSW,197,5.0,-999.0,98,-99.99,,,0.07,weatherlink.com 1.10,2013-02-13 17:54:00,
2013-02-13 13:09:00,40.3,40.0,29.76,South,179,5.0,-999.0,98,-99.99,,,0.07,weatherlink.com 1.10,2013-02-13 18:09:00,
2013-02-13 13:24:00,40.6,40.0,29.75,South,181,6.0,-999.0,98,-99.99,,,0.07,weatherlink.com 1.10,2013-02-13 18:24:00,
2013-02-13 13:39:00,40.5,40.0,29.75,South,188,8.0,-999.0,98,-99.99,,,0.07,weatherlink.com 1.10,2013-02-13 18:39:00,
2013-02-13 13:54:00,40.6,40.0,29.74,South,170,3.0,-999.0,98,-99.99,,,0.07,weatherlink.com 1.10,2013-02-13 18:54:00,
2013-02-13 14:09:00,40.8,40.0,29.75,SSE,167,10.0,-999.0,98,-99.99,,,0.07,weatherlink.com 1.10,2013-02-13 19:09:00,
2013-02-13 14:24:00,41.0,41.0,29.74,SW,214,5.0,-999.0,98,-99.99,,,0.07,weatherlink.com 1.10,2013-02-13 19:24:00,
2013-02-13 14:39:00,41.1,41.0,29.75,SSW,211,4.0,-999.0,98,-99.99,,,0.07,weatherlink.com 1.10,2013-02-13 19:39:00,
2013-02-13 14:54:00,41.3,41.0,29.74,SSE,153,7.0,-999.0,98,-99.99,,,0.07,weatherlink.com 1.10,2013-02-13 19:54:00,
2013-02-13 15:09:00,41.3,41.0,29.74,ESE,113,4.0,-999.0,98,-99.99,,,0.07,weatherlink.com 1.10,2013-02-13 20:09:00,
2013-02-13 15:24:00,41.5,41.0,29.74,ESE,106,6.0,-999.0,98,-99.99,,,0.07,weatherlink.com 1.10,2013-02-13 20:24:00,
2013-02-13 15:39:00,41.9,41.0,29.75,South,191,6.0,-999.0,98,-99.99,,,0.07,weatherlink.com 1.10,2013-02-13 20:39:00,
2013-02-13 15:54:00,42.2,42.0,29.75,SW,228,4.0,-999.0,98,-99.99,,,0.07,weatherlink.com 1.10,2013-02-13 20:54:00,
2013-02-13 16:09:00,42.9,42.0,29.77,SSW,201,5.0,-999.0,98,-99.99,,,0.07,weatherlink.com 1.10,2013-02-13 21:09:00,
2013-02-13 16:39:00,44.1,44.0,29.76,WNW,293,9.0,-999.0,99,-99.99,,,0.07,weatherlink.com 1.10,2013-02-13 21:39:00,
2013-02-13 16:54:00,45.1,45.0,29.76,SSW,212,2.0,-999.0,99,-99.99,,,0.07,weatherlink.com 1.10,2013-02-13 21:54:00,
2013-02-13 17:09:00,44.9,44.0,29.77,WNW,287,7.0,-999.0,98,-99.99,,,0.07,weatherlink.com 1.10,2013-02-13 22:09:00,
2013-02-13 17:24:00,44.7,44.0,29.78,WNW,298,3.0,-999.0,96,-99.99,,,0.07,weatherlink.com 1.10,2013-02-13 22:24:00,
2013-02-13 17:39:00,45.1,44.0,29.78,West,266,7.0,-999.0,95,-99.99,,,0.07,weatherlink.com 1.10,2013-02-13 22:39:00,
2013-02-13 17:54:00,46.0,43.0,29.79,SSW,213,2.0,-999.0,89,-99.99,,,0.07,weatherlink.com 1.10,2013-02-13 22:54:00,
2013-02-13 18:09:00,45.7,42.0,29.80,WSW,255,3.0,-999.0,85,-99.99,,,0.07,weatherlink.com 1.10,2013-02-13 23:09:00,
2013-02-13 18:24:00,45.2,41.0,29.82,NW,311,1.0,-999.0,86,-99.99,,,0.07,weatherlink.com 1.10,2013-02-13 23:24:00,
2013-02-13 18:39:00,44.3,39.0,29.82,NNW,330,1.0,-999.0,83,-99.99,,,0.07,weatherlink.com 1.10,2013-02-13 23:39:00,
2013-02-13 18:54:00,44.2,38.0,29.84,NW,316,6.0,-999.0,78,-99.99,,,0.07,weatherlink.com 1.10,2013-02-13 23:54:00,
2013-02-13 19:09:00,44.2,37.0,29.85,NW,320,2.0,-999.0,75,-99.99,,,0.07,weatherlink.com 1.10,2013-02-14 00:09:00,
2013-02-13 19:24:00,42.9,36.0,29.86,NNW,338,2.0,-999.0,76,-99.99,,,0.07,weatherlink.com 1.10,2013-02-14 00:24:00,
2013-02-13 19:39:00,42.0,35.0,29.87,NW,323,7.0,-999.0,76,-99.99,,,0.07,weatherlink.com 1.10,2013-02-14 00:39:00,
2013-02-13 19:54:00,41.5,34.0,29.87,NE,53,4.0,-999.0,76,-99.99,,,0.07,weatherlink.com 1.10,2013-02-14 00:54:00,
2013-02-13 20:09:00,40.8,32.0,29.88,NNW,329,7.0,-999.0,72,-99.99,,,0.07,weatherlink.com 1.10,2013-02-14 01:09:00,
2013-02-13 20:24:00,40.4,32.0,29.88,NNW,328,2.0,-999.0,71,-99.99,,,0.07,weatherlink.com 1.10,2013-02-14 01:24:00,
2013-02-13 20:39:00,40.3,30.0,29.89,NW,326,5.0,-999.0,68,-99.99,,,0.07,weatherlink.com 1.10,2013-02-14 01:39:00,
2013-02-13 20:54:00,39.8,31.0,29.89,NNW,331,2.0,-999.0,70,-99.99,,,0.07,weatherlink.com 1.10,2013-02-14 01:54:00,
2013-02-13 21:09:00,39.4,30.0,29.91,NW,326,6.0,-999.0,70,-99.99,,,0.07,weatherlink.com 1.10,2013-02-14 02:09:00,
2013-02-13 21:24:00,38.5,32.0,29.92,WNW,295,3.0,-999.0,76,-99.99,,,0.07,weatherlink.com 1.10,2013-02-14 02:24:00,
2013-02-13 21:39:00,37.4,32.0,29.92,NW,307,4.0,-999.0,81,-99.99,,,0.07,weatherlink.com 1.10,2013-02-14 02:39:00,
2013-02-13 21:54:00,36.7,32.0,29.92,NE,51,5.0,-999.0,83,-99.99,,,0.07,weatherlink.com 1.10,2013-02-14 02:54:00,
2013-02-13 22:09:00,36.5,32.0,29.92,WNW,300,8.0,-999.0,83,-99.99,,,0.07,weatherlink.com 1.10,2013-02-14 03:09:00,
2013-02-13 22:24:00,35.9,31.0,29.92,NNW,338,11.0,-999.0,83,-99.99,,,0.07,weatherlink.com 1.10,2013-02-14 03:24:00,
2013-02-13 22:39:00,35.5,31.0,29.92,NNW,347,10.0,-999.0,84,-99.99,,,0.07,weatherlink.com 1.10,2013-02-14 03:39:00,
2013-02-13 22:54:00,35.4,31.0,29.92,NNW,346,6.0,-999.0,83,-99.99,,,0.07,weatherlink.com 1.10,2013-02-14 03:54:00,
2013-02-13 23:09:00,35.6,30.0,29.93,NW,310,11.0,-999.0,81,-99.99,,,0.07,weatherlink.com 1.10,2013-02-14 04:09:00,
2013-02-13 23:39:00,35.5,30.0,29.95,West,262,6.0,-999.0,81,-99.99,,,0.07,weatherlink.com 1.10,2013-02-14 04:39:00,